CST,Max TemperatureF,Mean TemperatureF,Min TemperatureF,Max Dew PointF,MeanDew PointF,Min DewpointF,Max Humidity, Mean Humidity, Min Humidity, Max Sea Level PressureIn, Mean Sea Level PressureIn, Min Sea Level PressureIn, Max VisibilityMiles, Mean VisibilityMiles, Min VisibilityMiles, Max Wind SpeedMPH, Mean Wind SpeedMPH, Max Gust SpeedMPH,PrecipitationIn, CloudCover, Events, WindDirDegrees
2012-11-1,43,35,27,38,28,21,92,71,49,30.14,30.06,29.99,10,9,5,22,10,26,0.00,3,,80
2012-11-2,39,32,25,34,25,20,85,75,64,30.14,30.07,30.01,10,10,10,18,5,23,T,7,,126
2012-11-3,40,36,31,35,31,25,92,78,64,30.24,30.18,30.09,10,10,10,16,9,21,0.00,8,,335
2012-11-4,36,33,29,34,29,24,100,89,78,30.24,30.15,30.05,10,7,2,13,6,15,0.03,8,Rain,118
2012-11-5,47,41,34,40,36,34,100,88,76,30.25,30.10,29.85,10,7,2,22,7,28,0.05,7,Rain,196
2012-11-6,54,40,26,34,29,24,85,62,38,30.13,30.06,29.95,10,10,10,31,14,43,0.00,0,,318
2012-11-7,59,42,25,33,29,24,100,65,30,30.11,29.90,29.70,10,10,10,24,10,29,0.00,0,,145
2012-11-8,43,38,33,35,31,28,85,74,62,30.10,29.98,29.73,10,10,10,33,12,40,0.00,5,,14
2012-11-9,34,32,29,34,31,27,100,91,82,30.10,29.90,29.71,10,5,1,21,13,25,0.02,8,,77
2012-11-10,38,28,18,37,27,12,100,89,77,29.83,29.66,29.56,10,4,0,32,16,41,0.23,8,Fog-Rain-Snow,339
2012-11-11,19,14,9,13,9,3,80,71,61,30.07,29.97,29.87,10,8,2,32,23,38,T,6,Snow,294
2012-11-12,28,19,10,18,11,5,91,73,55,30.24,30.17,29.98,10,9,3,28,11,36,T,1,Snow,284
2012-11-13,39,26,12,32,22,10,92,81,69,30.25,30.22,30.19,10,10,10,8,4,10,0.00,3,,152
2012-11-14,44,34,23,37,29,21,100,88,76,30.22,30.14,30.07,10,8,0,8,5,10,0.00,1,Fog,142
2012-11-15,40,33,25,28,25,22,100,77,54,30.47,30.38,30.16,10,10,10,16,6,20,0.00,0,,338
2012-11-16,52,40,27,35,28,20,92,71,50,30.39,30.14,30.00,10,10,10,25,12,29,0.00,0,,154
2012-11-17,52,40,27,37,32,27,100,77,54,30.02,29.99,29.96,10,10,5,14,5,17,0.00,3,,46
2012-11-18,63,43,23,39,29,23,100,68,36,29.99,29.90,29.77,10,5,0,21,6,24,0.00,2,Fog,138
2012-11-19,54,41,27,34,29,24,92,65,38,30.19,30.09,29.89,10,10,10,14,5,17,0.00,1,,341
2012-11-20,56,41,26,34,31,24,92,68,43,30.14,29.99,29.91,10,10,10,17,7,21,0.00,0,,142
2012-11-21,59,45,31,36,33,30,92,66,40,29.89,29.72,29.59,10,10,10,12,6,14,0.00,0,,138
2012-11-22,46,32,18,37,26,10,92,75,58,30.45,30.04,29.64,10,10,9,36,20,45,0.03,5,Rain-Snow,323
2012-11-23,28,21,13,13,11,9,84,67,50,30.58,30.48,30.27,10,10,10,28,11,33,0.00,1,,341
2012-11-24,44,33,21,31,20,14,85,65,45,30.24,29.97,29.81,10,10,10,17,10,21,0.00,3,,186
2012-11-25,36,24,12,24,19,7,96,79,61,30.35,30.09,29.96,10,9,6,21,10,26,0.00,4,,341
2012-11-26,31,17,2,20,10,0,91,72,53,30.51,30.39,30.24,10,10,10,14,6,20,0.00,0,,247
2012-11-27,38,25,12,25,18,10,100,80,59,30.29,30.19,30.06,10,10,8,12,3,14,0.00,1,,274
2012-11-28,38,25,12,25,19,11,96,78,59,30.29,30.13,30.02,10,9,1,14,4,17,0.00,1,,127
2012-11-29,24,20,15,21,19,14,100,91,81,30.13,30.03,29.94,10,7,0,14,7,17,0.00,7,Fog,80
2012-11-30,38,30,21,30,23,19,100,85,70,30.12,29.95,29.67,10,5,0,21,11,24,0.00,5,Fog,144